W5TTY Weather Reports


time (UTC)temp
F
wind
direction
speed
knots
gust
knots
rain 1hr
in
rain 24hr
in
rain mn
in
humidity
%
barometer
mb
20260903005330 83 60 4.3 7.8 0.00 0.02 0.02 70 1011.4
20260903004831 83 57 3.5 7.8 0.00 0.02 0.02 70 1011.4
20260903004336 84 88 4.3 8.7 0.00 0.02 0.02 70 1011.3
20260903003821 84 109 4.3 10.4 0.00 0.02 0.02 70 1011.2
20260903003328 84 71 4.3 13.0 0.00 0.02 0.02 70 1011.1
20260903002832 84 103 7.8 13.0 0.00 0.02 0.02 70 1011.0
20260903002317 84 164 6.1 13.9 0.00 0.02 0.02 69 1011.0
20260903001823 85 91 6.1 13.9 0.00 0.02 0.02 69 1011.1
20260903001323 85 133 6.1 13.9 0.00 0.02 0.02 69 1011.1
20260903000836 85 72 7.0 14.8 0.00 0.02 0.02 69 1011.2
20260903000342 86 92 6.1 13.0 0.00 0.02 0.02 69 1011.2
20260902235827 86 89 6.1 13.0 0.00 0.02 0.02 69 1011.3
20260902235330 86 96 9.6 13.0 0.00 0.02 0.02 69 1011.2
20260902234835 87 60 7.8 13.0 0.00 0.02 0.02 69 1011.2
20260902234341 87 88 7.0 12.2 0.00 0.02 0.02 69 1011.3
20260902233830 87 99 8.7 16.5 0.00 0.02 0.02 69 1011.2
20260902233336 87 96 9.6 16.5 0.00 0.02 0.02 69 1011.3
20260902232823 87 52 8.7 14.8 0.00 0.02 0.02 69 1011.4
20260902232326 87 71 8.7 17.4 0.00 0.02 0.02 69 1011.3
20260902231901 87 71 10.4 17.4 0.00 0.02 0.02 69 1011.3
20260902231326 87 75 6.1 13.0 0.00 0.02 0.02 69 1011.2
20260902230831 87 71 7.0 15.6 0.00 0.02 0.02 68 1011.1
20260902230336 87 57 9.6 15.6 0.00 0.02 0.02 68 1011.2
20260902225838 87 44 7.8 14.8 0.00 0.02 0.02 68 1011.2
20260902225318 87 49 7.8 13.9 0.00 0.02 0.02 68 1011.0
20260902224824 87 53 6.1 12.2 0.00 0.02 0.02 68 1010.9
20260902224329 87 80 5.2 12.2 0.00 0.02 0.02 68 1010.7
20260902223834 87 84 7.8 12.2 0.00 0.02 0.02 68 1010.6
20260902223318 87 83 6.1 12.2 0.00 0.02 0.02 67 1010.6
20260902222823 87 64 5.2 11.3 0.00 0.02 0.02 67 1010.6
20260902222355 87 69 7.8 11.3 0.00 0.02 0.02 67 1010.5
20260902221843 87 108 6.1 11.3 0.00 0.02 0.02 67 1010.4
20260902221327 87 88 7.8 11.3 0.00 0.02 0.02 67 1010.5
20260902220839 87 65 6.1 8.7 0.00 0.02 0.02 66 1010.4
20260902220320 88 54 4.3 11.3 0.00 0.02 0.02 66 1010.4
20260902215834 88 68 7.0 11.3 0.00 0.02 0.02 66 1010.4
20260902215338 88 98 5.2 13.0 0.00 0.02 0.02 66 1010.4
20260902214826 88 40 7.0 13.0 0.00 0.02 0.02 65 1010.5
20260902214346 88 100 3.5 13.0 0.01 0.02 0.02 65 1010.5
20260902213835 88 71 3.5 7.8 0.02 0.02 0.02 65 1010.5
20260902213321 88 114 1.7 6.1 0.02 0.02 0.02 64 1010.4
20260902212826 87 98 3.5 7.0 0.02 0.02 0.02 64 1010.5
20260902212333 87 95 4.3 7.0 0.02 0.02 0.02 63 1010.6
20260902211845 87 89 4.3 7.0 0.02 0.02 0.02 62 1010.6
20260902211351 87 86 4.3 6.1 0.02 0.02 0.02 62 1010.6
20260902210818 88 65 2.6 4.3 0.02 0.02 0.02 62 1010.7
20260902210347 88 65 1.7 3.5 0.02 0.02 0.02 61 1010.8
20260902205855 89 51 1.7 2.6 0.02 0.02 0.02 61 1010.7
20260902205318 89 31 0.9 13.9 0.02 0.02 0.02 61 1010.9
20260902204826 91 315 1.7 13.9 0.02 0.02 0.02 61 1011.0
20260902204331 91 327 4.3 8.7 0.01 0.01 0.01 62 1011.2
20260902203818 91 64 1.7 7.8 0.00 0.00 0.00 62 1010.9
20260902203329 92 55 3.5 7.8 0.00 0.00 0.00 62 1010.9
20260902202834 92 55 4.3 7.8 0.00 0.00 0.00 62 1010.9
20260902202340 92 59 5.2 7.8 0.00 0.00 0.00 62 1010.9
20260902201823 93 79 4.3 7.0 0.00 0.00 0.00 63 1010.9
20260902201335 94 50 4.3 6.1 0.00 0.00 0.00 64 1011.0
20260902200844 94 315 2.6 7.0 0.00 0.00 0.00 64 1011.0
20260902200328 94 283 3.5 13.0 0.00 0.00 0.00 65 1011.1
20260902195836 94 264 4.3 13.0 0.00 0.00 0.00 65 1011.2
20260902195321 94 269 5.2 12.2 0.00 0.00 0.00 65 1011.3
20260902194827 94 263 6.1 12.2 0.00 0.00 0.00 66 1011.4
20260902194331 94 251 4.3 11.3 0.00 0.00 0.00 67 1011.4
20260902193834 94 286 5.2 11.3 0.00 0.00 0.00 67 1011.5
20260902193318 93 259 4.3 9.6 0.00 0.00 0.00 68 1011.6
20260902192826 92 236 2.6 9.6 0.00 0.00 0.00 68 1011.7
20260902192326 92 238 5.2 8.7 0.00 0.00 0.00 68 1011.9
20260902191833 92 306 3.5 13.9 0.00 0.00 0.00 68 1011.9
20260902191340 92 238 7.8 13.9 0.00 0.00 0.00 68 1012.0
20260902190826 92 266 4.3 13.0 0.00 0.00 0.00 69 1012.1
20260902190329 92 269 7.0 11.3 0.00 0.00 0.00 69 1012.2
20260902185837 92 249 7.0 13.0 0.00 0.00 0.00 70 1012.2
20260902185322 92 247 7.8 13.0 0.00 0.00 0.00 70 1012.2
20260902184824 92 254 7.0 12.2 0.00 0.00 0.00 71 1012.3
20260902184355 92 260 6.1 12.2 0.00 0.00 0.00 71 1012.3
20260902183842 92 273 5.2 13.0 0.00 0.00 0.00 71 1012.4
20260902183328 92 258 9.6 13.9 0.00 0.00 0.00 72 1012.5
20260902182836 92 280 7.8 13.9 0.00 0.00 0.00 72 1012.6
20260902182320 92 290 5.2 13.0 0.00 0.00 0.00 72 1012.7
20260902181828 92 286 7.0 15.6 0.00 0.00 0.00 73 1012.8
20260902181401 92 275 8.7 15.6 0.00 0.00 0.00 74 1012.8
20260902180846 92 285 6.1 20.0 0.00 0.00 0.00 74 1013.0
20260902180331 92 249 10.4 20.0 0.00 0.00 0.00 75 1013.0
20260902175834 92 269 9.6 15.6 0.00 0.00 0.00 75 1013.2
20260902175337 91 271 7.8 13.0 0.00 0.00 0.00 75 1013.3
20260902174824 92 263 8.7 17.4 0.00 0.00 0.00 76 1013.4
20260902174326 92 265 9.6 17.4 0.00 0.00 0.00 76 1013.5
20260902173833 92 259 7.8 17.4 0.00 0.00 0.00 77 1013.5
20260902173320 91 258 7.8 17.4 0.00 0.00 0.00 78 1013.6
20260902172824 91 244 7.0 14.8 0.00 0.00 0.00 78 1013.7
20260902172325 91 227 7.0 14.8 0.00 0.00 0.00 78 1013.9
20260902171836 91 216 7.0 12.2 0.00 0.00 0.00 78 1013.9
20260902171345 91 225 6.1 13.0 0.00 0.00 0.00 78 1014.0
20260902170829 91 254 7.0 13.0 0.00 0.00 0.00 79 1014.2
20260902170331 90 270 5.2 11.3 0.00 0.00 0.00 80 1014.2
20260902165838 90 309 3.5 8.7 0.00 0.00 0.00 80 1014.2
20260902165321 89 266 4.3 9.6 0.00 0.00 0.00 80 1014.3
20260902164826 89 280 3.5 9.6 0.00 0.00 0.00 80 1014.4
20260902164327 89 271 4.3 9.6 0.00 0.00 0.00 81 1014.4
20260902163859 88 281 4.3 9.6 0.00 0.00 0.00 81 1014.5
20260902163343 88 275 4.3 9.6 0.00 0.00 0.00 80 1014.6
20260902162830 88 327 1.7 7.8 0.00 0.00 0.00 81 1014.7
20260902162354 88 23 2.6 7.8 0.00 0.00 0.00 82 1014.6
20260902161905 88 236 5.2 8.7 0.00 0.00 0.00 82 1014.7
20260902161327 87 286 1.7 8.7 0.00 0.00 0.00 82 1014.7
20260902160850 87 57 2.6 10.4 0.00 0.00 0.00 82 1014.7
20260902160340 86 336 3.5 10.4 0.00 0.00 0.00 82 1014.7
20260902155847 86 301 3.5 7.8 0.00 0.00 0.00 82 1014.7
20260902155329 86 284 2.6 7.8 0.00 0.00 0.00 82 1014.8
20260902154834 85 309 3.5 7.8 0.00 0.00 0.00 82 1014.9
20260902154320 85 275 2.6 7.8 0.00 0.00 0.00 82 1014.8
20260902153828 85 273 5.2 10.4 0.00 0.00 0.00 83 1014.9
20260902153331 85 283 3.5 10.4 0.00 0.00 0.00 83 1014.8
20260902152819 85 241 4.3 9.6 0.00 0.00 0.00 83 1014.6
20260902152318 84 265 7.0 13.9 0.00 0.00 0.00 83 1014.7
20260902151824 84 263 6.1 13.9 0.00 0.00 0.00 83 1014.7
20260902151330 84 320 2.6 9.6 0.00 0.00 0.00 83 1014.6
20260902150836 83 236 5.2 8.7 0.00 0.00 0.00 83 1014.7
20260902150342 83 244 2.6 7.8 0.00 0.00 0.00 83 1014.8
20260902145834 82 265 4.3 7.8 0.00 0.00 0.00 83 1014.7
20260902145337 82 270 2.6 7.8 0.00 0.00 0.00 83 1014.7
20260902144842 81 250 4.3 7.8 0.00 0.00 0.00 83 1014.7
20260902144328 81 302 1.7 5.2 0.00 0.00 0.00 83 1014.8
20260902143830 80 304 1.7 7.8 0.00 0.00 0.00 83 1014.8
20260902143401 79 331 3.5 7.8 0.00 0.00 0.00 83 1014.9
20260902142844 79 302 0.9 4.3 0.00 0.00 0.00 83 1014.9
20260902142327 79 304 1.7 3.5 0.00 0.00 0.00 82 1014.8
20260902141829 78 317 2.6 3.5 0.00 0.00 0.00 82 1014.8
20260902141334 78 325 0.9 3.5 0.00 0.00 0.00 82 1014.8
20260902140819 78 323 2.6 3.5 0.00 0.00 0.00 82 1014.8
20260902140323 78 323 0.9 3.5 0.00 0.00 0.00 82 1014.8
20260902135829 78 324 1.7 3.5 0.00 0.00 0.00 82 1014.8
20260902135402 78 324 1.7 3.5 0.00 0.00 0.00 82 1014.9
20260902134825 78 323 0.9 3.5 0.00 0.00 0.00 81 1014.9
20260902134330 77 325 1.7 3.5 0.00 0.00 0.00 81 1014.8
20260902133324 77 326 1.7 2.6 0.00 0.00 0.00 81 1014.9
20260902132829 77 326 0.0 3.5 0.00 0.00 0.00 81 1014.8
20260902132335 77 292 1.7 3.5 0.00 0.00 0.00 81 1014.8
20260902131842 77 292 1.7 3.5 0.00 0.00 0.00 81 1014.7
20260902131333 77 303 1.7 3.5 0.00 0.00 0.00 81 1014.7
20260902130839 76 301 2.6 3.5 0.00 0.00 0.00 81 1014.6
20260902130326 76 312 2.6 3.5 0.00 0.00 0.00 81 1014.6
20260902125826 76 300 2.6 3.5 0.00 0.00 0.00 81 1014.4
20260902125327 76 305 1.7 3.5 0.00 0.00 0.00 80 1014.2
20260902124833 76 269 2.6 5.2 0.00 0.00 0.00 80 1014.2
20260902124318 76 282 2.6 3.5 0.00 0.00 0.00 80 1014.2
20260902123822 76 281 1.7 3.5 0.00 0.00 0.00 80 1014.2
20260902123336 76 276 1.7 3.5 0.00 0.00 0.00 80 1014.0
20260902122847 76 277 1.7 3.5 0.00 0.00 0.00 80 1014.0
20260902122350 76 263 2.6 3.5 0.00 0.00 0.00 80 1013.9
20260902121833 76 257 1.7 3.5 0.00 0.00 0.00 80 1013.9
20260902121317 76 255 1.7 3.5 0.00 0.00 0.00 80 1013.9
20260902120822 76 254 1.7 3.5 0.00 0.00 0.00 80 1013.9
20260902120357 76 254 1.7 5.2 0.00 0.00 0.00 79 1013.9
20260902115822 76 257 2.6 5.2 0.00 0.00 0.00 79 1013.9
20260902115327 76 258 1.7 3.5 0.00 0.00 0.00 79 1013.8
20260902114834 76 258 1.7 3.5 0.00 0.00 0.00 79 1013.8
20260902114322 76 258 2.6 3.5 0.00 0.00 0.00 79 1013.8
20260902113823 76 258 2.6 3.5 0.00 0.00 0.00 79 1013.9
20260902113330 76 325 2.6 3.5 0.00 0.00 0.00 79 1013.8
20260902112840 76 325 1.7 3.5 0.00 0.00 0.00 79 1013.8
20260902112332 75 325 2.6 3.5 0.00 0.00 0.00 79 1013.8
20260902031828 82 90 0.0 0.0 0.00 0.00 0.00 63 1014.0
20260902031331 82 90 0.0 0.0 0.00 0.00 0.00 62 1013.9
20260902030818 82 90 0.0 0.0 0.00 0.00 0.00 62 1013.9
20260902030319 82 90 0.0 0.0 0.00 0.00 0.00 62 1013.9
20260902025851 83 90 0.0 1.7 0.00 0.00 0.00 62 1013.8
20260902025333 83 90 0.9 2.6 0.00 0.00 0.00 61 1013.8
20260902024820 83 90 0.9 2.6 0.00 0.00 0.00 61 1013.8
20260902024323 83 90 1.7 2.6 0.00 0.00 0.00 61 1013.7
20260902023824 83 90 0.9 2.6 0.00 0.00 0.00 61 1013.6
20260902023339 83 90 1.7 2.6 0.00 0.00 0.00 60 1013.6
20260902022845 83 90 1.7 1.7 0.00 0.00 0.00 60 1013.5
20260902022325 84 90 0.0 0.0 0.00 0.00 0.00 60 1013.4
20260902021829 84 90 0.0 0.0 0.00 0.00 0.00 60 1013.4
20260902021333 84 90 0.0 1.7 0.00 0.00 0.00 59 1013.4
20260902020818 84 90 0.0 2.6 0.00 0.00 0.00 59 1013.2
20260902020323 84 90 0.9 2.6 0.00 0.00 0.00 59 1013.1
20260902015826 85 90 0.9 3.5 0.00 0.00 0.00 59 1013.0
20260902015330 85 89 1.7 3.5 0.00 0.00 0.00 58 1013.0
20260902014817 85 96 1.7 5.2 0.00 0.00 0.00 58 1013.0
20260902014350 85 100 2.6 6.1 0.00 0.00 0.00 58 1013.0
20260902013836 85 105 1.7 6.1 0.00 0.00 0.00 57 1013.0
20260902013322 85 105 2.6 6.1 0.00 0.00 0.00 57 1013.0
20260902012829 86 94 2.6 7.0 0.00 0.00 0.00 57 1013.0
20260902012336 86 111 4.3 7.0 0.00 0.00 0.00 57 1013.0
20260902011839 86 121 2.6 7.8 0.00 0.00 0.00 56 1012.9
20260902011323 86 118 4.3 7.8 0.00 0.00 0.00 56 1013.0
20260902010829 86 105 3.5 7.8 0.00 0.00 0.00 56 1013.0
20260902010334 87 72 5.2 10.4 0.00 0.00 0.00 55 1013.1
20260902005846 87 102 4.3 10.4 0.00 0.00 0.00 55 1013.0